Wind_Speed
8 9 13 16 8 8 7 6 2 7 4 6 2 10 14 24 17 4 17 13 21 27 29 29 26 23 23 25 25 22 20 21 20 18 17 16 14 11 9 8 6 5 5 4 4 3 3 2 2
9 10 14 9 10 13 7 11 5 9 7 3 2 6 7 9 16 13 15 14 22 25 27 27 28 24 22 25 26 25 21 20 18 16 16 15 12 10 8 6 5 4 3 3 3 2 2 2 2
7 9 10 12 13 16 11 4 6 2 2 3 2 1 6 10 8 6 14 17 23 24 26 26 29 25 22 22 26 26 23 22 19 17 16 15 12 10 7 5 4 3 3 2 1 1 2 3 3
8 10 8 11 18 14 4 11 4 3 4 5 5 5 6 9 3 6 11 18 24 25 26 26 30 27 23 22 25 25 24 22 19 18 16 14 12 10 8 6 4 3 2 2 1 1 2 2 2
13 8 11 15 17 20 4 4 1 5 3 3 5 4 3 9 3 5 10 17 23 25 25 25 31 27 24 23 24 24 23 22 18 17 15 13 12 10 8 6 5 4 2 1 1 1 1 2 2
8 8 13 14 18 14 9 1 5 7 3 0 8 3 8 9 3 5 11 19 22 25 24 24 31 28 25 24 24 24 22 20 17 16 14 11 9 8 7 6 6 5 3 2 2 2 2 3 4
14 12 14 17 16 9 4 4 8 9 5 1 6 9 9 8 7 7 13 20 22 24 23 24 24 27 26 25 24 24 22 19 17 16 14 11 9 7 6 6 6 4 3 2 2 2 2 3 5
12 12 19 16 15 13 6 3 12 5 10 6 2 7 6 10 11 11 17 20 23 24 23 24 24 23 23 22 24 23 21 19 17 16 14 12 10 8 7 7 6 5 3 3 3 2 3 3 5
9 13 14 17 12 10 4 5 14 2 6 10 2 5 7 9 11 11 16 20 22 25 26 26 25 24 23 21 22 23 21 19 18 16 14 12 8 8 9 9 11 6 5 4 2 3 4 5 4
13 12 18 10 8 3 5 5 9 6 12 14 10 9 3 6 11 14 15 18 22 25 27 27 26 25 24 22 20 20 18 17 16 14 13 12 10 10 8 10 10 8 6 4 3 2 4 6 9
15 17 18 6 6 10 14 11 7 12 14 11 11 6 9 7 10 11 14 19 20 22 25 26 27 28 26 24 21 21 19 18 17 16 15 13 12 10 10 8 6 7 6 7 5 4 6 4 6
19 17 14 13 5 11 12 13 16 9 15 15 2 3 6 11 10 12 14 18 19 25 28 25 27 27 25 22 21 20 21 19 18 17 17 14 12 10 9 10 7 5 8 1 4 5 3 4 3
17 16 13 11 13 12 13 14 16 16 13 13 10 8 13 11 12 13 11 10 17 22 22 24 25 25 24 19 21 19 20 19 18 16 17 17 14 12 10 9 8 6 4 4 4 4 3 2 3
13 14 19 10 14 14 15 17 16 18 12 13 9 12 11 12 14 15 9 8 10 15 22 23 24 25 24 24 19 20 18 17 17 17 16 18 15 13 11 10 9 8 7 5 5 3 3 4 3
14 17 16 16 14 15 10 18 19 16 13 9 14 12 9 5 6 11 15 8 6 10 14 23 24 25 24 24 22 20 19 19 18 17 16 16 17 13 13 11 10 10 6 4 6 4 4 5 4
14 17 16 18 19 15 13 17 19 17 15 12 14 14 8 8 3 7 4 8 8 9 14 16 22 24 24 22 21 20 19 18 18 17 17 18 17 17 15 13 12 10 5 4 7 7 6 6 5
16 15 19 15 6 10 14 15 19 11 8 11 11 12 10 6 10 8 5 4 3 10 12 17 20 21 23 21 21 21 19 19 18 19 19 19 20 19 18 14 13 10 10 9 8 9 7 6 7
17 18 17 12 15 12 14 17 16 8 13 12 12 13 9 6 11 7 5 6 3 6 12 13 18 20 20 22 22 20 20 21 22 20 21 19 19 19 18 16 13 12 11 12 9 9 6 8 6
22 14 14 10 11 7 15 15 14 12 13 12 14 9 8 1 7 4 5 8 8 4 7 14 16 18 21 24 23 22 22 22 20 18 14 17 20 18 17 14 15 14 12 12 9 9 7 8 8
18 14 17 15 11 9 15 18 16 13 12 15 13 10 4 4 4 3 8 9 10 8 4 7 14 17 20 21 21 20 20 21 18 17 18 16 17 17 20 19 16 15 12 13 12 12 9 8 8
17 18 16 16 12 10 16 18 14 16 9 5 1 3 5 2 2 7 8 11 11 9 6 3 9 16 18 20 18 17 18 16 21 19 15 17 18 22 23 23 20 16 16 16 16 13 12 10 9
18 17 16 16 14 13 21 14 20 18 12 12 9 8 5 3 8 9 11 12 14 13 12 10 2 11 15 16 19 17 17 18 21 16 17 17 19 22 24 25 22 19 17 16 14 14 13 11 12
16 17 13 16 17 16 16 9 17 21 20 16 8 5 5 9 10 11 14 15 16 16 16 15 9 1 6 9 16 16 17 18 19 19 17 17 19 20 26 26 25 23 20 15 14 14 15 11 12
10 13 17 13 15 16 21 17 12 13 22 18 11 7 6 8 10 11 14 17 19 20 18 20 19 16 11 5 9 12 16 13 17 16 18 20 19 18 21 21 22 21 20 17 16 13 11 10 10
13 14 11 14 14 17 18 19 12 11 12 16 13 10 8 6 9 11 11 14 17 21 21 19 19 18 19 16 5 8 12 16 15 16 17 18 19 19 21 22 22 22 22 18 17 16 14 10 9
14 18 15 20 14 14 14 21 10 15 12 12 11 10 8 7 10 10 11 13 16 18 19 20 20 19 18 17 16 12 7 11 14 16 20 12 16 16 20 24 22 21 20 19 17 14 13 12 11
16 14 9 10 18 14 9 10 10 13 13 14 13 10 7 6 6 7 11 11 13 13 15 17 17 17 19 19 18 15 14 14 9 11 13 13 11 12 19 22 20 20 21 23 24 23 24 22 22
12 8 8 10 13 18 15 7 5 2 5 10 12 9 7 3 3 5 7 9 10 11 15 16 14 15 17 18 18 18 19 12 15 12 10 10 13 15 15 17 20 22 23 24 24 27 32 35 30
8 12 14 13 7 12 13 10 7 4 3 11 10 7 5 3 7 7 9 9 12 13 14 13 15 14 15 17 17 17 17 17 15 13 9 10 15 18 18 21 19 19 19 18 18 19 22 21 21
11 12 1 6 13 13 13 12 12 13 9 3 4 2 6 6 7 8 10 11 12 12 14 15 13 15 14 13 14 17 17 16 15 16 10 10 14 19 18 17 15 17 18 16 16 18 19 22 21
Wind_Direction
276 285 282 274 245 235 150 99 176 121 177 0 308 295 14 287 36 44 126 139 151 149 157 165 172 171 170 175 178 180 178 171 166 160 157 154 150 145 141 133 122 115 114 110 108 115 126 141 155
268 276 262 272 264 255 94 130 215 35 66 291 266 260 266 35 69 116 126 141 152 150 159 162 173 174 172 176 178 178 179 175 170 165 163 160 156 152 147 141 134 129 124 115 117 129 154 183 197
259 262 271 256 251 267 129 139 83 90 40 341 8 227 359 65 65 76 102 151 155 154 160 167 172 175 174 175 179 178 179 177 175 173 169 165 162 157 153 150 146 141 137 122 127 150 182 187 187
240 227 242 260 262 252 49 117 74 255 163 353 37 239 141 46 44 63 143 155 158 159 162 177 174 176 176 177 181 180 180 179 178 177 174 171 168 164 161 159 158 156 157 149 167 160 163 181 193
239 262 254 247 240 266 157 79 260 266 253 36 315 53 116 84 96 142 155 165 162 160 162 170 176 178 178 179 183 185 183 181 182 183 181 177 173 171 168 166 167 170 177 199 209 206 206 218 245
238 246 249 245 241 240 259 134 254 268 262 212 325 296 85 106 147 171 163 169 167 160 160 168 177 179 180 181 181 184 185 186 187 186 185 185 182 179 176 177 177 179 198 237 235 235 255 278 282
250 240 250 268 279 262 214 200 244 238 306 57 314 287 121 126 110 140 155 162 164 163 160 167 172 177 182 183 184 185 188 191 191 189 190 192 192 196 194 189 191 196 227 217 208 223 267 291 306
249 258 270 258 262 266 240 219 247 257 245 51 255 347 14 108 130 143 150 160 163 167 163 168 173 176 175 181 188 189 190 193 195 195 197 198 201 208 215 206 203 202 204 204 206 233 270 292 310
244 262 251 252 246 244 235 245 245 268 266 233 198 312 42 127 127 155 155 162 166 171 169 172 176 180 180 180 187 191 194 195 199 202 205 205 207 223 228 227 217 215 195 196 232 257 267 281 266
232 232 251 293 332 293 288 240 272 247 249 226 192 132 70 143 164 164 172 171 174 178 176 174 180 183 184 182 188 187 194 196 199 203 207 207 220 217 228 206 232 221 214 233 263 268 264 259 237
227 248 276 322 267 283 280 262 252 252 256 251 231 135 149 189 200 199 182 179 182 181 185 183 182 179 191 187 183 191 195 198 204 205 207 214 224 224 226 225 220 218 227 240 228 265 269 323 322
241 259 263 277 228 251 255 265 269 261 263 275 208 311 265 181 203 215 196 180 179 192 191 188 183 183 198 192 189 192 197 198 202 205 208 214 222 221 228 233 216 213 199 249 278 291 350 312 304
245 251 262 261 254 247 264 256 265 262 251 263 259 258 245 213 195 226 218 216 188 186 192 194 187 190 196 201 196 199 201 199 203 200 206 208 214 224 226 238 242 241 229 252 265 283 320 290 268
248 256 260 241 246 240 244 253 247 254 257 246 251 244 240 220 191 186 207 222 233 195 190 200 195 188 195 201 204 203 202 203 207 206 207 208 211 218 224 227 233 245 248 253 274 245 277 272 292
257 261 257 245 239 244 237 254 245 243 253 234 238 229 243 264 208 183 181 200 211 203 199 194 200 192 200 203 209 205 209 211 208 213 205 207 210 215 218 224 231 242 244 227 261 267 250 261 258
244 245 254 233 211 224 231 258 223 227 221 237 243 228 210 219 306 39 174 181 179 203 197 201 206 201 200 208 209 214 217 214 218 214 212 208 209 211 214 223 228 241 223 233 243 248 253 257 251
225 246 227 246 184 238 207 249 252 174 194 240 247 236 215 190 107 37 12 351 275 195 201 202 205 209 205 207 213 215 220 221 222 220 217 207 209 208 209 219 224 229 248 252 237 240 259 250 264
227 216 248 237 168 219 230 236 269 178 215 223 234 235 224 212 85 70 34 42 8 264 207 210 209 211 206 206 212 217 220 220 222 223 219 212 211 209 204 219 218 216 228 244 231 254 245 270 253
274 282 292 248 232 214 239 248 235 231 228 225 230 215 215 83 70 62 49 43 36 37 244 204 213 209 211 207 207 214 218 219 219 224 220 213 199 196 207 215 216 215 228 241 208 220 233 249 255
254 259 257 262 253 220 249 242 248 244 227 230 229 175 125 194 146 59 48 49 49 36 19 238 220 215 215 216 219 220 221 224 224 217 224 213 197 198 207 207 222 212 222 219 213 207 230 227 232
241 248 249 253 217 247 262 255 224 231 199 110 169 82 171 187 66 59 59 44 40 31 13 315 247 221 218 226 219 225 232 241 219 213 210 209 202 205 203 205 211 210 209 211 205 211 218 246 225
248 237 253 265 245 241 206 251 217 209 180 184 176 193 156 111 76 57 57 41 44 27 23 16 284 230 221 220 233 223 228 232 226 212 213 211 210 214 214 211 210 206 209 222 201 210 216 223 251
246 269 225 247 255 260 242 241 292 172 181 177 169 130 130 85 63 58 54 47 37 33 35 28 19 8 230 229 230 241 227 246 235 233 227 205 205 215 215 212 211 206 208 204 220 202 213 221 237
284 263 258 243 246 243 244 249 234 217 184 147 141 133 99 85 78 63 64 53 46 40 38 40 27 25 19 260 237 234 265 258 257 231 225 223 219 216 214 207 203 203 202 205 205 206 212 229 251
238 240 241 228 228 243 245 236 252 91 85 136 139 130 106 98 78 62 43 57 50 44 39 42 39 31 20 18 4 236 243 256 264 264 242 235 218 216 206 201 200 195 192 190 187 189 193 210 239
232 232 244 250 247 259 279 229 136 115 119 122 120 103 102 83 74 60 48 41 57 51 41 37 37 33 29 25 15 4 299 253 249 256 262 261 239 216 213 188 191 182 182 187 186 188 191 192 219
252 259 277 309 275 263 239 104 126 142 146 150 139 120 98 80 80 52 66 38 43 42 47 31 23 29 27 27 20 12 4 349 319 271 262 249 224 190 161 177 186 196 192 184 188 191 191 188 194
252 301 254 240 270 271 267 203 324 290 161 160 132 122 95 25 49 46 43 46 37 29 37 31 22 26 22 21 21 16 9 358 353 322 286 234 214 192 184 196 206 206 203 204 211 214 209 204 198
197 236 231 249 215 251 265 278 136 153 53 343 65 59 51 335 5 357 3 9 352 5 10 19 6 11 13 10 10 12 10 9 354 341 309 274 228 219 209 206 212 211 210 210 214 221 222 217 214
302 283 4 288 223 234 267 260 140 156 155 211 58 81 61 16 15 22 8 11 5 3 352 349 349 346 356 358 0 3 359 360 5 355 328 294 249 211 197 185 216 227 221 224 231 233 228 219 219
Height
776 775 772 764 774 750 752 765 743 756 750 738 734 732 742 753 740 779 744 751 757 764 772 778 783 787 790 794 799 804 808 810 811 812 814 816 818 819 820 821 821 821 821 821 822 822 822 822 822
776 774 769 758 773 760 755 746 753 744 739 735 735 733 735 732 721 741 747 754 760 767 774 779 783 788 791 795 799 804 809 812 814 815 817 818 820 821 822 822 822 822 822 823 823 823 823 822 822
775 773 768 761 760 759 771 745 742 741 735 737 737 732 730 734 734 738 750 755 761 769 776 780 784 789 793 797 800 804 808 812 814 816 818 819 821 822 824 824 824 824 824 824 824 824 824 823 823
771 765 762 775 766 737 735 741 745 742 735 732 733 740 730 738 739 746 753 756 762 769 776 779 784 789 794 798 802 805 808 812 815 817 818 820 821 823 824 825 826 826 826 825 825 824 824 824 823
770 759 770 767 759 737 726 730 740 743 740 740 733 741 737 743 748 750 753 757 762 768 776 780 784 790 794 798 804 808 811 813 816 819 821 821 822 823 824 825 826 826 826 826 826 825 825 824 824
767 758 774 770 752 735 725 728 737 742 734 736 739 737 738 744 748 749 751 756 761 768 776 783 785 790 795 799 803 808 812 815 818 820 822 824 825 825 825 825 825 826 826 827 826 826 826 825 824
769 761 769 757 747 737 731 725 737 741 738 739 737 741 739 738 747 750 752 756 762 769 776 783 788 791 796 800 804 808 812 815 817 820 822 824 826 827 826 826 826 826 826 826 827 826 826 826 825
760 760 765 753 753 749 726 734 733 737 742 732 735 748 760 742 744 750 752 757 761 769 776 784 789 793 796 800 804 808 811 814 817 819 822 823 825 826 826 826 826 827 827 826 826 826 826 825 825
759 773 769 753 748 742 725 745 730 730 740 735 733 736 742 750 744 749 752 756 761 766 772 780 787 793 797 801 803 807 810 813 816 819 821 823 826 826 827 827 827 827 827 827 826 826 826 825 824
765 769 758 733 732 741 733 741 738 742 740 736 734 736 740 740 745 748 751 754 759 765 769 774 783 790 794 797 803 807 811 813 815 818 821 823 824 824 826 826 827 827 827 827 827 826 825 823 822
757 767 740 737 743 742 741 739 736 745 746 732 732 731 738 744 744 742 745 750 758 767 769 773 778 785 790 793 799 804 807 810 813 816 818 820 821 823 825 826 827 828 827 826 825 825 823 823 822
763 749 745 741 742 750 750 740 742 741 739 723 723 731 735 741 742 741 741 744 753 760 764 769 775 782 787 790 795 799 802 806 809 812 815 818 820 821 822 822 822 824 824 824 825 822 824 825 824
753 749 741 744 744 746 744 747 744 741 732 730 729 734 734 733 740 742 740 740 744 753 761 768 773 780 785 788 792 795 798 801 804 808 811 814 817 819 820 820 820 820 820 822 823 824 824 824 824
742 745 745 741 744 744 752 747 742 736 730 734 732 733 729 728 731 739 745 746 747 750 758 767 772 777 783 786 790 793 796 798 802 804 807 812 814 816 818 819 821 820 819 820 822 822 824 824 823
745 756 747 743 742 746 742 754 746 728 727 733 734 731 729 728 731 734 742 749 751 753 757 763 769 776 782 785 788 791 794 796 799 801 805 808 811 813 816 816 818 818 819 819 823 823 824 823 823
757 753 761 733 736 739 746 758 728 723 730 736 732 729 729 730 731 740 740 746 751 755 760 763 768 772 778 783 787 789 791 793 795 798 800 804 807 810 813 814 815 817 817 819 822 822 822 821 821
754 764 752 739 729 739 746 750 726 717 729 736 731 727 728 730 738 748 749 750 750 754 758 762 766 769 774 780 784 787 789 791 793 794 796 798 801 804 809 811 812 815 816 818 820 820 821 820 822
753 751 744 740 734 743 743 747 726 722 731 735 732 729 726 732 743 753 754 753 753 753 756 759 764 767 770 777 782 784 785 786 787 789 792 795 798 802 804 808 809 811 813 815 818 820 820 821 821
736 744 742 730 725 745 745 739 731 725 729 731 729 730 732 736 746 755 756 753 753 755 755 758 762 765 770 772 775 778 779 780 783 785 788 791 790 797 803 806 808 809 811 813 816 819 821 821 821
748 754 752 738 729 743 746 743 730 725 726 727 727 727 738 745 750 755 752 753 754 756 757 757 760 763 767 769 771 773 775 776 779 784 788 790 791 795 798 800 804 806 808 811 815 816 818 819 819
752 755 750 748 733 741 747 743 734 723 719 727 735 738 745 749 749 749 751 754 755 757 757 757 757 760 763 767 769 772 773 773 775 778 782 784 786 789 790 793 798 800 804 806 811 813 816 816 817
760 739 745 745 749 758 734 758 727 723 736 740 743 743 744 746 746 749 750 754 755 756 756 755 757 757 760 763 766 767 769 770 770 772 777 780 784 785 786 789 792 793 798 803 807 810 812 814 814
750 734 738 747 749 748 738 753 722 713 737 742 745 748 748 747 751 753 756 758 758 757 758 758 756 758 760 761 764 765 767 767 767 770 773 775 777 779 781 784 788 791 795 797 802 806 808 810 813
736 743 743 742 746 762 741 737 732 715 720 733 747 752 751 750 753 756 759 762 762 762 762 763 761 761 761 760 762 764 765 765 765 765 768 771 774 776 777 780 782 786 790 793 796 801 804 806 810
747 754 769 769 763 758 727 735 726 729 722 733 749 753 752 753 755 760 762 763 766 767 767 765 766 766 764 763 762 763 764 765 766 766 763 766 766 768 770 775 778 781 783 787 791 794 797 801 805
741 748 760 771 758 739 719 732 736 734 738 742 748 752 755 757 761 765 768 767 768 771 772 771 770 770 768 766 765 764 763 763 763 763 763 762 763 764 765 769 775 775 778 783 787 790 792 794 799
750 757 739 762 748 752 737 738 743 742 748 750 751 755 762 764 765 767 770 771 769 770 772 773 773 772 771 769 768 766 764 761 761 761 761 761 761 763 765 768 773 775 776 777 776 780 780 783 786
753 739 768 760 785 783 758 760 774 761 756 750 752 757 764 767 766 768 769 772 772 772 773 775 774 773 773 772 770 769 766 764 761 760 760 760 761 764 765 769 771 773 774 773 773 775 774 773 773
753 757 756 759 780 776 779 764 769 774 790 763 759 767 769 771 771 771 772 775 774 774 774 776 776 773 773 773 772 770 769 766 765 762 760 759 761 762 763 767 770 772 773 774 774 776 778 777 777
755 755 761 783 775 765 759 761 757 768 776 780 773 777 775 776 776 775 776 776 778 779 779 778 778 775 774 773 772 771 770 768 766 763 762 760 759 760 761 765 768 770 771 773 774 774 774 776 775